Date String (YYYY-MM-DD hh:mm:ss) UTC,Instrument flags,Ambient pressure (hPa),Sample flow (lpm),Bypass flow (lpm),Sample temperature (°C),Ambient temperature (°C),ASC tube jacket temperature (°C),LED temperature (°C),Box temperature (°C),Sample RH (%),Span deviation,Mass concentration (μg/m³),Mass concentration (μg/m³),Mass concentration (μg/m³)
DateTimeUTC,F1_M11,P_M11,Q1_M11,Q2_M11,T1_M11,T2_M11,T3_M11,T4_M11,T5_M11,U1_M11,ZSPAN_M11,X0_M11,X2_M11,X1_M11
2023-01-17 17:00:00,,0814.8,5.01,0.00,23.3,22.0,00.0,32.0,25.0,14.0,0000.0,0009.78,0005.06,0004.68
2023-01-17 17:01:00,,0814.7,5.00,0.00,23.3,22.0,00.0,32.0,25.0,14.1,0000.0,0009.54,0005.06,0004.71
2023-01-17 17:02:00,,0815.1,5.01,0.00,23.3,22.0,00.0,32.0,25.1,14.1,0000.0,0008.82,0005.03,0004.74
2023-01-17 17:03:00,,0815.2,5.00,0.00,23.2,21.9,00.0,32.0,25.1,14.2,0000.4,0008.63,0005.03,0004.79
2023-01-17 17:04:00,,0814.7,5.01,0.00,23.2,21.9,00.0,32.0,25.1,14.0,0000.2,0008.53,0005.06,0004.83
2023-01-17 17:05:00,,0814.9,4.99,0.00,23.2,21.9,00.0,32.0,25.1,14.3,0000.1,0009.15,0005.10,0004.85
2023-01-17 17:06:00,,0815.0,5.00,0.00,23.2,21.9,00.0,32.0,25.0,14.1,-000.2,0009.59,0005.10,0004.87
2023-01-17 17:07:00,,0814.9,5.00,0.00,23.2,21.9,00.0,32.0,25.0,14.1,-000.1,0009.58,0005.12,0004.88
2023-01-17 17:08:00,,0814.9,5.01,0.00,23.2,21.9,00.0,32.0,25.0,14.2,-000.0,0009.67,0005.17,0004.91
2023-01-17 17:09:00,,0814.9,5.00,0.00,23.2,21.9,00.0,32.0,25.0,14.2,-000.0,0009.99,0005.19,0004.92
2023-01-17 17:10:00,,0814.9,4.99,0.00,23.2,21.9,00.0,32.0,25.0,14.1,0000.0,0010.00,0005.22,0004.94
2023-01-17 17:11:00,,0814.9,4.99,0.00,23.2,21.9,00.0,32.0,25.0,14.2,0000.0,0009.45,0005.23,0004.96
2023-01-17 17:12:00,,0814.9,4.99,0.00,23.2,21.9,00.0,32.0,25.0,14.1,0000.0,0009.21,0005.21,0004.95
2023-01-17 17:13:00,,0814.9,5.00,0.00,23.2,21.9,00.0,32.0,25.0,13.9,0000.0,0009.13,0005.19,0004.94
2023-01-17 17:14:00,,0814.9,5.00,0.00,23.2,21.9,00.0,32.0,25.0,14.2,0000.0,0009.13,0005.19,0004.94
2023-01-17 17:15:00,,0814.9,5.01,0.00,23.2,21.8,00.0,32.0,25.0,14.2,0000.0,0009.18,0005.22,0004.98
2023-01-17 17:16:00,,0814.9,5.00,0.00,23.2,21.8,00.0,32.0,25.0,14.3,0000.0,0008.77,0005.26,0005.02
2023-01-17 17:17:00,,0814.9,5.00,0.00,23.2,21.8,00.0,32.0,25.0,14.3,0000.0,0008.37,0005.32,0005.06
2023-01-17 17:18:00,,0814.9,4.98,0.00,23.2,21.8,00.0,32.0,25.0,14.3,-000.1,0008.61,0005.36,0005.10
2023-01-17 17:19:00,,0814.9,5.00,0.00,23.2,21.9,00.0,32.0,25.0,14.2,-001.2,0008.59,0005.36,0005.12
2023-01-17 17:20:00,,0815.2,5.01,0.00,23.2,21.9,00.0,32.0,25.0,14.1,-001.1,0008.22,0005.38,0005.16
2023-01-17 17:21:00,,0815.0,5.01,0.00,23.2,21.9,00.0,32.0,25.0,14.1,-000.8,0008.17,0005.40,0005.19
2023-01-17 17:22:00,,0815.1,5.01,0.00,23.2,21.8,00.0,32.0,25.0,14.2,-000.2,0008.29,0005.46,0005.24
2023-01-17 17:23:00,,0815.3,5.00,0.00,23.2,21.8,00.0,32.0,24.9,14.1,-001.1,0008.40,0005.53,0005.29
2023-01-17 17:24:00,,0815.2,4.98,0.00,23.1,21.7,00.0,32.0,24.9,14.1,-001.7,0008.54,0005.60,0005.35
2023-01-17 17:25:00,,0815.3,5.03,0.00,23.1,21.6,00.0,32.0,24.9,14.1,-001.8,0008.66,0005.69,0005.42
2023-01-17 17:26:00,,0815.3,4.99,0.00,23.1,21.6,00.0,32.0,24.9,14.1,-000.7,0008.65,0005.71,0005.46
2023-01-17 17:27:00,,0815.4,5.00,0.00,23.1,21.6,00.0,32.0,24.8,14.2,-000.7,0008.67,0005.72,0005.48
2023-01-17 17:28:00,,0815.3,5.00,0.00,23.1,21.6,00.0,32.0,24.8,14.3,-000.9,0008.87,0005.75,0005.51
2023-01-17 17:29:00,,0815.4,5.00,0.00,23.0,21.5,00.0,32.0,24.8,14.4,-001.6,0008.59,0005.75,0005.54
2023-01-17 17:30:00,,0815.3,5.00,0.00,23.0,21.5,00.0,31.9,24.8,14.2,-001.5,0008.55,0005.80,0005.59
2023-01-17 17:31:00,,0815.4,5.00,0.00,23.0,21.5,00.0,31.9,24.8,14.1,-001.2,0008.62,0005.87,0005.64
2023-01-17 17:32:00,,0815.3,5.00,0.00,23.0,21.5,00.0,31.9,24.8,14.3,-001.5,0008.69,0005.92,0005.69
2023-01-17 17:33:00,,0815.3,4.97,0.00,23.0,21.4,00.0,31.9,24.7,14.2,-001.8,0008.63,0005.93,0005.71
2023-01-17 17:34:00,,0815.4,4.99,0.00,22.9,21.3,00.0,31.9,24.7,14.1,-001.6,0008.64,0005.94,0005.73
2023-01-17 17:35:00,,0815.4,4.99,0.00,22.9,21.3,00.0,31.9,24.6,14.1,-001.1,0008.54,0005.91,0005.72
2023-01-17 17:36:00,,0815.4,5.01,0.00,22.9,21.2,00.0,31.9,24.6,14.2,-001.1,0008.46,0005.88,0005.71
2023-01-17 17:37:00,,0815.4,4.98,0.00,22.9,21.2,00.0,31.9,24.6,14.3,-001.4,0008.53,0005.88,0005.70
2023-01-17 17:38:00,,0815.4,4.99,0.00,22.9,21.2,00.0,31.8,24.6,14.4,-001.3,0008.51,0005.87,0005.70
2023-01-17 17:39:00,,0815.3,4.99,0.00,22.8,21.2,00.0,31.8,24.6,14.1,-001.4,0008.29,0005.84,0005.67
2023-01-17 17:40:00,,0815.3,5.00,0.00,22.8,21.2,00.0,31.8,24.6,14.0,-001.1,0008.25,0005.82,0005.64
2023-01-17 17:41:00,,0815.4,5.00,0.00,22.8,21.2,00.0,31.8,24.6,14.0,-001.2,0008.25,0005.78,0005.60
2023-01-17 17:42:00,,0815.3,4.99,0.00,22.8,21.2,00.0,31.8,24.5,14.0,-001.4,0008.46,0005.75,0005.57
2023-01-17 17:43:00,,0815.3,5.02,0.00,22.8,21.1,00.0,31.8,24.5,14.1,-001.3,0008.93,0005.73,0005.55
2023-01-17 17:44:00,,0815.3,5.00,0.00,22.8,21.1,00.0,31.7,24.5,14.1,-001.1,0009.02,0005.75,0005.56
2023-01-17 17:45:00,,0815.3,5.00,0.00,22.7,21.1,00.0,31.7,24.5,14.4,-001.3,0009.01,0005.76,0005.56
2023-01-17 17:46:00,,0815.3,4.99,0.00,22.7,21.1,00.0,31.7,24.5,14.7,-001.7,0009.06,0005.79,0005.58
2023-01-17 17:47:00,,0815.3,5.00,0.00,22.7,21.1,00.0,31.7,24.4,14.6,-001.7,0009.12,0005.82,0005.61
2023-01-17 17:48:00,,0815.3,5.01,0.00,22.7,21.1,00.0,31.7,24.4,14.3,-001.4,0009.12,0005.85,0005.64
2023-01-17 17:49:00,,0815.3,4.99,0.00,22.7,21.0,00.0,31.7,24.4,14.3,-001.1,0009.13,0005.89,0005.68
2023-01-17 17:50:00,,0815.3,5.00,0.00,22.7,21.0,00.0,31.7,24.4,14.3,-001.0,0009.20,0005.95,0005.73
2023-01-17 17:51:00,,0815.3,5.00,0.00,22.6,21.0,00.0,31.6,24.4,14.3,-001.3,0009.29,0006.01,0005.78
2023-01-17 17:52:00,,0815.3,4.98,0.00,22.6,21.0,00.0,31.6,24.4,14.4,-001.0,0009.30,0006.04,0005.80
2023-01-17 17:53:00,,0815.3,5.00,0.00,22.6,21.0,00.0,31.6,24.4,14.4,-001.1,0009.27,0006.08,0005.83
2023-01-17 17:54:00,,0815.3,5.01,0.00,22.6,21.0,00.0,31.6,24.3,14.4,-001.1,0008.81,0006.11,0005.85
2023-01-17 17:55:00,,0815.3,5.01,0.00,22.6,21.3,00.0,31.5,24.4,14.5,-001.3,0008.71,0006.12,0005.85
2023-01-17 17:56:00,,0815.3,4.99,0.00,22.7,22.1,00.0,31.5,24.6,14.5,-001.1,0008.73,0006.13,0005.86
2023-01-17 17:57:00,,0815.3,5.00,0.00,22.8,23.1,00.0,31.5,24.9,14.7,-000.8,0008.83,0006.20,0005.92
2023-01-17 17:58:00,,0815.4,4.99,0.00,22.9,23.0,00.0,31.6,24.9,14.7,-000.9,0009.02,0006.34,0006.04
2023-01-17 17:59:00,,0815.3,5.01,0.00,22.9,22.6,00.0,31.6,24.8,14.7,-001.0,0009.23,0006.52,0006.17
